Weather History for KFET - December, 2014

Change the Weather History Date:

Monday, December 15, 2014

  Actual Average (WUND) Record (WUND)
Temperature  
Mean Temperature 40 °F -  
Max Temperature 54 °F - - (-1)
Min Temperature 27 °F - - (-1)
Degree Days  
Heating Degree Days 24    
Moisture  
Dew Point 35 °F    
Average Humidity 93    
Maximum Humidity 98    
Minimum Humidity 80    
Precipitation  
Precipitation 0.66 in - - ()
Sea Level Pressure  
Sea Level Pressure 29.75 in    
Wind  
Wind Speed 14 mph (NW)    
Max Wind Speed 32 mph    
Max Gust Speed 43 mph    
Visibility 8 miles    
Events Rain    
Averages and records for this station are not official NWS values.
T = Trace of Precipitation, MM = Missing Value Source: NWS Daily Summary

Daily Weather History Graph

Daily Weather History Graph

Search for Another Location

Airport or City:

Trip Planner

Search our weather history database for the weather conditions in past years. The results will help you decide how hot, cold, wet, or windy it might be!

Date:

Astronomy

Dec. 15, 2014 Rise Set
Actual Time 7:45 AM CST 4:57 PM CST
Civil Twilight 7:13 AM CST 5:28 PM CST
Nautical Twilight 6:39 AM CST 6:03 PM CST
Astronomical Twilight 6:05 AM CST 6:37 PM CST
Moon 1:00 AM CST (12/15) 1:01 PM CST (12/15)
Length of Visible Light 10h 14m
Length of Day
9h 11m
Last Quarter, 39% of the Moon is Illuminated
Dec 15
Last Quarter
Dec 21
New
Dec 28
First Quarter
Jan 4
Full
Jan 13
Last Quarter

Hourly Weather History & Observations

Time (CST) Temp. Windchill Dew Point Humidity Pressure Visibility Wind Dir Wind Speed Gust Speed Precip Events Conditions
12:15 AM 54.3 °F - 52.7 °F 94% 29.70 in 4.0 mi ESE 8.1 mph - 0.02 in Rain Rain
12:35 AM 54.1 °F - 52.7 °F 95% 29.69 in 4.0 mi ESE 8.1 mph - 0.09 in Rain Rain
12:55 AM 54.1 °F - 52.7 °F 95% 29.68 in 5.0 mi ESE 6.9 mph - 0.12 in Rain Rain
1:15 AM 54.1 °F - 52.7 °F 95% 29.67 in 5.0 mi East 3.5 mph - 0.03 in Rain Rain
1:35 AM 54.1 °F - 52.7 °F 95% 29.67 in 7.0 mi East 5.8 mph - 0.05 in Rain Rain
1:55 AM 52.9 °F - 50.4 °F 91% 29.67 in 5.0 mi NW 12.7 mph 17.3 mph 0.07 in Rain Light Rain
2:15 AM 43.7 °F 39.1 °F 42.6 °F 96% 29.67 in 5.0 mi NNW 8.1 mph - 0.05 in Rain Rain
2:35 AM 41.9 °F 35.4 °F 41.0 °F 97% 29.66 in 7.0 mi NNW 11.5 mph 17.3 mph 0.07 in Rain Rain
2:55 AM 41.0 °F 35.2 °F 40.1 °F 97% 29.68 in 7.0 mi NNW 9.2 mph - 0.10 in Rain Rain
3:15 AM 40.1 °F 34.7 °F 39.2 °F 97% 29.67 in 4.0 mi NW 8.1 mph - 0.06 in Rain Rain
3:35 AM 39.6 °F 33.5 °F 38.8 °F 97% 29.68 in 7.0 mi NNW 9.2 mph - 0.10 in Rain Rain
3:55 AM 39.2 °F 35.0 °F 38.3 °F 97% 29.68 in 2.5 mi NNW 5.8 mph - 0.14 in Rain Rain
4:15 AM 38.3 °F 31.9 °F 37.6 °F 97% 29.65 in 5.0 mi North 9.2 mph 17.3 mph 0.03 in Rain Light Rain
4:35 AM 38.3 °F 31.9 °F 37.4 °F 97% 29.65 in 10.0 mi NNW 9.2 mph - 0.04 in Rain Light Rain
4:55 AM 37.6 °F 30.5 °F 36.9 °F 97% 29.65 in 5.0 mi NW 10.4 mph 16.1 mph 0.07 in Rain Light Rain
5:15 AM 37.2 °F 30.0 °F 36.5 °F 97% 29.65 in 7.0 mi NW 10.4 mph - N/A Rain Light Rain
5:35 AM 36.7 °F 28.9 °F 36.0 °F 97% 29.66 in 3.0 mi NW 11.5 mph - 0.03 in Rain Light Rain
5:55 AM 36.5 °F 30.3 °F 35.8 °F 97% 29.65 in 5.0 mi NW 8.1 mph - 0.09 in Rain Light Rain
6:15 AM 36.5 °F 29.2 °F 35.6 °F 97% 29.66 in 10.0 mi NW 10.4 mph - N/A Rain Light Rain
6:35 AM 36.5 °F 28.7 °F 35.6 °F 97% 29.65 in 10.0 mi NW 11.5 mph - N/A   Overcast
6:55 AM 36.5 °F 29.2 °F 35.6 °F 97% 29.66 in 10.0 mi NW 10.4 mph - N/A   Overcast
7:15 AM 36.5 °F 28.2 °F 35.6 °F 97% 29.66 in 4.0 mi NW 12.7 mph - N/A   Overcast
7:35 AM 36.3 °F 28.4 °F 35.6 °F 97% 29.66 in 4.0 mi NW 11.5 mph 17.3 mph N/A   Overcast
7:55 AM 36.5 °F 29.2 °F 35.6 °F 97% 29.67 in 5.0 mi NW 10.4 mph - N/A   Overcast
8:15 AM 36.1 °F 28.7 °F 35.6 °F 98% 29.67 in 4.0 mi NW 10.4 mph - N/A Rain Light Rain
8:35 AM 36.1 °F 28.7 °F 35.6 °F 98% 29.67 in 3.0 mi NW 10.4 mph - 0.01 in   Light Drizzle
8:55 AM 36.1 °F 29.3 °F 35.4 °F 97% 29.67 in 5.0 mi NW 9.2 mph - 0.01 in Rain Rain
9:15 AM 36.1 °F 29.3 °F 35.6 °F 98% 29.68 in 7.0 mi NW 9.2 mph - 0.01 in Rain Rain
9:35 AM 36.5 °F 27.8 °F 35.6 °F 97% 29.68 in 5.0 mi NW 13.8 mph - 0.03 in Rain Light Rain
9:55 AM 36.5 °F 27.8 °F 35.8 °F 97% 29.67 in 5.0 mi NW 13.8 mph 17.3 mph 0.03 in Rain Light Rain
10:15 AM 36.7 °F 28.0 °F 35.8 °F 97% 29.68 in 10.0 mi NW 13.8 mph - N/A Rain Rain
10:35 AM 36.9 °F 27.5 °F 35.8 °F 96% 29.67 in 10.0 mi NW 16.1 mph - 0.01 in Rain Light Rain
10:55 AM 37.2 °F 28.3 °F 36.0 °F 95% 29.67 in 10.0 mi NW 15.0 mph 21.9 mph 0.01 in   Light Drizzle
11:15 AM 37.6 °F 31.6 °F 36.1 °F 95% 29.67 in 10.0 mi NNW 8.1 mph 15.0 mph N/A   Drizzle
11:35 AM 37.4 °F 30.3 °F 35.8 °F 94% 29.68 in 10.0 mi NNW 10.4 mph 16.1 mph N/A Rain Light Rain
11:55 AM 37.9 °F 32.1 °F 36.5 °F 95% 29.67 in 7.0 mi NNW 8.1 mph - 0.01 in Rain Rain
12:15 PM 38.3 °F 30.5 °F 36.7 °F 94% 29.66 in 7.0 mi NW 12.7 mph - N/A   Drizzle
12:35 PM 38.5 °F 29.6 °F 37.0 °F 95% 29.65 in 10.0 mi NW 16.1 mph 20.7 mph 0.01 in   Drizzle
12:55 PM 38.7 °F 29.5 °F 37.0 °F 94% 29.65 in 10.0 mi NW 17.3 mph 21.9 mph 0.01 in   Light Drizzle
1:15 PM 38.3 °F 29.0 °F 36.7 °F 94% 29.65 in 7.0 mi NW 17.3 mph 23.0 mph N/A   Light Drizzle
1:35 PM 38.3 °F 28.7 °F 36.9 °F 95% 29.65 in 4.0 mi NW 18.4 mph 23.0 mph N/A   Overcast
1:55 PM 38.3 °F 28.1 °F 37.4 °F 97% 29.65 in 3.0 mi NW 20.7 mph 26.5 mph N/A   Overcast
2:15 PM 38.3 °F 28.1 °F 36.9 °F 95% 29.65 in 7.0 mi NW 20.7 mph 27.6 mph N/A   Overcast
2:35 PM 37.8 °F 26.6 °F 36.5 °F 95% 29.65 in 7.0 mi NW 24.2 mph 27.6 mph N/A   Overcast
2:55 PM 37.4 °F 26.4 °F 35.6 °F 93% 29.67 in 10.0 mi NW 23.0 mph 29.9 mph N/A   Overcast
3:15 PM 37.0 °F 25.1 °F 35.2 °F 93% 29.68 in 10.0 mi NW 26.5 mph 33.4 mph N/A   Overcast
3:35 PM 36.9 °F 25.6 °F 34.7 °F 92% 29.69 in 10.0 mi NW 23.0 mph 35.7 mph N/A   Overcast
3:55 PM 36.5 °F 24.2 °F 34.2 °F 91% 29.71 in 10.0 mi NW 27.6 mph 34.5 mph N/A   Overcast
4:15 PM 36.3 °F 26.1 °F 33.8 °F 91% 29.74 in 10.0 mi NNW 18.4 mph 39.1 mph N/A   Overcast
4:35 PM 35.2 °F 23.0 °F 32.9 °F 91% 29.76 in 10.0 mi NW 25.3 mph 28.8 mph N/A   Overcast
4:55 PM 33.6 °F 21.1 °F 32.2 °F 94% 29.78 in 5.0 mi NW 24.2 mph 29.9 mph N/A   Overcast
5:15 PM 33.3 °F 20.9 °F 32.0 °F 95% 29.80 in 10.0 mi NW 23.0 mph 27.6 mph N/A   Overcast
5:35 PM 33.1 °F 20.3 °F 31.8 °F 95% 29.82 in 10.0 mi NW 24.2 mph 28.8 mph N/A   Overcast
5:55 PM 32.9 °F 20.4 °F 31.5 °F 94% 29.84 in 10.0 mi NW 23.0 mph 29.9 mph N/A   Overcast
6:15 PM 32.2 °F 18.4 °F 30.4 °F 93% 29.85 in 10.0 mi NW 27.6 mph 35.7 mph N/A   Overcast
6:35 PM 32.0 °F 18.6 °F 29.8 °F 92% 29.86 in 10.0 mi NNW 25.3 mph 33.4 mph N/A   Overcast
6:55 PM 31.8 °F 18.1 °F 29.1 °F 90% 29.87 in 10.0 mi NW 26.5 mph 36.8 mph N/A   Overcast
7:15 PM 31.6 °F 17.6 °F 28.4 °F 88% 29.89 in 10.0 mi NNW 27.6 mph 33.4 mph N/A   Overcast
7:35 PM 30.7 °F 16.4 °F 26.6 °F 85% 29.91 in 10.0 mi NNW 27.6 mph 35.7 mph N/A   Overcast
7:55 PM 30.4 °F 16.2 °F 26.2 °F 85% 29.92 in 10.0 mi NW 26.5 mph 34.5 mph N/A   Overcast
8:15 PM 30.0 °F 16.6 °F 25.7 °F 84% 29.93 in 10.0 mi NW 23.0 mph 34.5 mph N/A   Overcast
8:35 PM 29.5 °F 15.3 °F 25.5 °F 85% 29.94 in 10.0 mi NW 25.3 mph 36.8 mph N/A   Overcast
8:55 PM 29.1 °F 14.2 °F 25.0 °F 85% 29.95 in 10.0 mi NW 27.6 mph 39.1 mph N/A   Overcast
9:15 PM 28.4 °F 13.3 °F 23.7 °F 83% 29.96 in 10.0 mi NW 27.6 mph 35.7 mph N/A   Overcast
9:35 PM 28.0 °F 11.8 °F 23.2 °F 82% 29.97 in 10.0 mi NW 32.2 mph 39.1 mph N/A   Overcast
9:55 PM 27.5 °F 11.5 °F 22.6 °F 82% 29.98 in 10.0 mi NNW 29.9 mph 39.1 mph N/A   Overcast
10:15 PM 27.3 °F 11.0 °F 22.3 °F 81% 30.00 in 10.0 mi NW 31.1 mph 36.8 mph N/A   Overcast
10:35 PM 27.3 °F 11.5 °F 22.1 °F 81% 30.01 in 10.0 mi NNW 28.8 mph 41.4 mph N/A   Overcast
10:55 PM 27.3 °F 12.4 °F 21.9 °F 80% 30.03 in 10.0 mi NW 25.3 mph 42.6 mph N/A   Overcast
11:15 PM 27.1 °F 12.1 °F 21.9 °F 81% 30.04 in 10.0 mi NNW 25.3 mph 36.8 mph N/A   Overcast
11:35 PM 27.3 °F 12.7 °F 22.1 °F 81% 30.05 in 10.0 mi NNW 24.2 mph 35.7 mph N/A   Overcast
11:55 PM 27.3 °F 12.4 °F 22.5 °F 82% 30.06 in 10.0 mi NNW 25.3 mph 41.4 mph N/A   Overcast